Le nostre stazioni meteo in Italia

Pubblicità
Il mio iltempo24.it
Brindisi, Italia (16320): Temperatura & dewpoint: 13.05.2019 21:00:00 - 19.05.2019 21:00:00 (CEST)Brindisi, Italia (16320): velocità del vento: 13.05.2019 21:00:00 - 19.05.2019 21:00:00 (CEST)Brindisi, Italia (16320): direzione del vento: 13.05.2019 21:00:00 - 19.05.2019 21:00:00 (CEST)Brindisi, Italia (16320): reduced air pressure: 13.05.2019 21:00:00 - 19.05.2019 21:00:00 (CEST)Brindisi, Italia (16320): visibility: 13.05.2019 21:00:00 - 19.05.2019 21:00:00 (CEST)Brindisi, Italia (16320): precipitazioni: 13.05.2019 21:00:00 - 19.05.2019 21:00:00 (CEST)
Data & Tempo tt [°C] td [°C] ff [km/h] ff [kn] dd ppp [hPa] vv [km] rr [mm]
19.05.2019 21:00:00 17,0 14,0 5 3 O - 10 -
19.05.2019 20:00:00 17,6 13,9 9 5 NO 1007,1 10 -
19.05.2019 19:00:00 22,0 10,0 9 5 O - 10 -
19.05.2019 18:00:00 23,0 11,0 24 13 SO - 10 -
19.05.2019 17:00:00 23,5 11,0 24 13 SSO 1004,9 10 0,0
19.05.2019 16:00:00 23,0 12,0 26 14 SSO - 10 -
19.05.2019 15:00:00 23,0 12,0 18 10 S - 10 -
19.05.2019 14:00:00 21,3 14,0 15 8 S 1004,2 10 -
19.05.2019 13:00:00 20,0 14,0 13 7 S - 10 -
19.05.2019 12:00:00 20,0 13,0 18 10 S - 10 -
19.05.2019 11:00:00 20,4 12,1 21 11 S 1004,2 10 0,0
19.05.2019 10:00:00 19,0 13,0 22 12 SSE - 10 -
19.05.2019 09:00:00 19,0 14,0 15 8 S - 10 -
19.05.2019 08:00:00 16,9 14,5 9 5 S 1005,6 10 -
19.05.2019 07:00:00 16,0 14,0 4 2 - - 10 -
19.05.2019 06:00:00 15,0 14,0 2 1 - - 10 -
19.05.2019 05:00:00 15,0 13,7 2 1 - 1006,3 10 0,0
19.05.2019 04:00:00 - - - - - - - -
19.05.2019 03:00:00 15,0 13,0 8 4 S - 10 -
19.05.2019 02:00:00 15,2 13,0 8 4 S 1007,7 10 -
19.05.2019 01:00:00 15,0 13,0 9 5 SSE - 10 -
19.05.2019 00:00:00 16,0 13,0 8 4 SE - 10 -
18.05.2019 23:00:00 15,6 12,4 8 4 SE 1009,1 10 0,0
18.05.2019 22:00:00 17,0 13,0 11 6 SSE - 10 -
18.05.2019 21:00:00 17,0 12,0 13 7 SSE - 10 -
18.05.2019 20:00:00 17,7 12,2 16 9 S 1008,4 10 -
18.05.2019 19:00:00 19,0 12,0 22 12 S - 10 -
18.05.2019 18:00:00 19,0 11,0 31 17 S - 10 -
18.05.2019 17:00:00 19,3 11,1 29 16 S 1007,8 10 0,0
18.05.2019 16:00:00 20,0 11,0 29 16 S - 10 -
18.05.2019 15:00:00 20,0 11,0 28 15 S - 10 -
18.05.2019 14:00:00 21,0 12,5 26 14 S 1009,1 10 -
18.05.2019 13:00:00 21,0 11,0 24 13 S - 10 -
18.05.2019 12:00:00 20,0 12,0 21 11 SSE - 10 -
18.05.2019 11:00:00 19,4 13,1 15 8 S 1009,8 10 0,0
18.05.2019 10:00:00 18,0 14,0 16 9 SSE - 10 -
18.05.2019 09:00:00 16,0 14,0 15 8 SSE - 10 -
18.05.2019 08:00:00 16,0 13,9 13 7 SE 1009,9 10 -
18.05.2019 07:00:00 15,0 14,0 15 8 S - 10 -
18.05.2019 06:00:00 15,0 13,0 13 7 S - 10 -
18.05.2019 05:00:00 14,7 13,1 11 6 S 1009,3 10 0,0
18.05.2019 04:00:00 14,0 13,0 15 8 SSO - 10 -
18.05.2019 03:00:00 14,0 12,0 8 4 SSE - 10 -
18.05.2019 02:00:00 14,5 12,5 8 4 S 1010,0 10 -
18.05.2019 01:00:00 16,0 13,0 9 5 S - 10 -
18.05.2019 00:00:00 16,0 13,0 9 5 S - 10 -
17.05.2019 23:00:00 15,8 13,0 8 4 S 1010,8 10 0,0
17.05.2019 22:00:00 16,0 14,0 9 5 S - 10 -
17.05.2019 21:00:00 16,0 13,0 9 5 SE - 10 -
17.05.2019 20:00:00 16,6 13,2 9 5 E 1010,2 10 -
17.05.2019 19:00:00 17,0 13,0 9 5 E - 10 -
17.05.2019 18:00:00 17,0 13,0 11 6 ENE - 10 -
17.05.2019 17:00:00 17,7 13,1 13 7 NE 1010,4 10 0,0
17.05.2019 16:00:00 18,0 13,0 15 8 NNE - 10 -
17.05.2019 15:00:00 18,0 13,0 13 7 NNE - 10 -
17.05.2019 14:00:00 17,3 13,1 15 8 NNE 1011,1 10 -
17.05.2019 13:00:00 17,0 13,0 18 10 N - 10 -
17.05.2019 12:00:00 17,0 13,0 16 9 NO - 10 -
17.05.2019 11:00:00 17,4 12,4 16 9 NO 1011,8 10 0,0
17.05.2019 10:00:00 17,0 13,0 18 10 NO - 10 -
17.05.2019 09:00:00 17,0 12,0 18 10 NNO - 10 -
17.05.2019 08:00:00 16,1 12,4 16 9 NNO 1011,0 10 -
17.05.2019 07:00:00 16,0 12,0 11 6 NNO - 10 -
17.05.2019 06:00:00 15,0 12,0 9 5 NNO - 10 -
17.05.2019 05:00:00 15,1 12,3 9 5 NNO 1010,1 - 0,0
17.05.2019 04:00:00 15,0 12,0 9 5 NNO - 10 -
17.05.2019 03:00:00 15,0 12,0 11 6 N - 10 -
17.05.2019 02:00:00 15,5 12,3 11 6 N 1010,5 10 -
17.05.2019 01:00:00 16,0 12,0 13 7 N - 10 -
17.05.2019 00:00:00 16,0 13,0 9 5 N - 10 -
16.05.2019 23:00:00 15,6 12,7 11 6 NNE 1011,3 10 0,0
16.05.2019 22:00:00 16,0 13,0 15 8 NE - 10 -
16.05.2019 21:00:00 16,0 13,0 13 7 NE - 10 -
16.05.2019 20:00:00 15,7 12,9 11 6 N 1010,4 10 -
16.05.2019 19:00:00 16,0 13,0 11 6 N - 10 -
16.05.2019 18:00:00 16,0 13,0 5 3 N - 10 -
16.05.2019 17:00:00 15,0 12,1 5 3 NE 1009,8 10 0,0
16.05.2019 16:00:00 16,0 13,0 9 5 S - 8 -
16.05.2019 15:00:00 14,0 12,0 11 6 SO - 8 -
16.05.2019 14:00:00 16,8 12,7 11 6 E 1010,2 10 -
16.05.2019 13:00:00 17,0 13,0 21 11 ENE - 10 -
16.05.2019 12:00:00 18,0 13,0 18 10 ENE - 10 -
16.05.2019 11:00:00 17,0 12,1 16 9 ENE 1010,1 10 0,0
16.05.2019 10:00:00 17,0 13,0 15 8 NE - 10 -
16.05.2019 09:00:00 17,0 13,0 11 6 NE - 10 -
16.05.2019 08:00:00 15,8 12,0 8 4 NE 1010,0 10 -
16.05.2019 07:00:00 14,0 13,0 4 2 - - 10 -
16.05.2019 06:00:00 14,0 13,0 5 3 ONO - 10 -
16.05.2019 05:00:00 13,5 12,3 4 2 - 1009,2 10 0,0
16.05.2019 04:00:00 14,0 12,0 4 2 O - 10 -
16.05.2019 03:00:00 - - - - - - - -
16.05.2019 02:00:00 14,6 12,5 4 2 - 1010,7 10 -
16.05.2019 01:00:00 21,0 18,0 9 5 NO - 10 -
16.05.2019 00:00:00 15,0 11,0 9 5 E - 10 -
15.05.2019 23:00:00 14,9 11,4 8 4 E 1011,3 10 0,0
15.05.2019 22:00:00 15,0 11,0 8 4 E - 10 -
15.05.2019 21:00:00 15,0 11,0 11 6 ENE - 10 -
15.05.2019 20:00:00 14,6 10,3 5 3 ENE 1011,9 10 -
15.05.2019 19:00:00 16,0 10,0 5 3 ENE - 10 -
15.05.2019 18:00:00 16,0 10,0 9 5 NNE - 10 -
15.05.2019 17:00:00 15,3 10,2 8 4 N 1011,8 10 0,0
15.05.2019 16:00:00 15,0 11,0 9 5 N - 7 -
15.05.2019 15:00:00 16,0 11,0 18 10 N - 10 -
15.05.2019 14:00:00 15,8 10,2 18 10 NNO 1011,9 10 -
15.05.2019 13:00:00 16,0 10,0 16 9 N - 10 -
15.05.2019 12:00:00 15,0 10,0 18 10 NO - 10 -
15.05.2019 11:00:00 15,5 9,8 21 11 NO 1012,1 10 0,0
15.05.2019 10:00:00 15,0 9,0 21 11 NO - 10 -
15.05.2019 09:00:00 14,0 9,0 26 14 NO - 10 -
15.05.2019 08:00:00 13,5 9,4 24 13 ONO 1011,2 10 -
15.05.2019 07:00:00 14,0 10,0 24 13 ONO - 10 -
15.05.2019 06:00:00 13,0 10,0 13 7 O - 10 -
15.05.2019 05:00:00 12,8 10,3 18 10 O 1010,0 10 0,0
15.05.2019 04:00:00 13,0 11,0 22 12 ONO - 10 -
15.05.2019 03:00:00 13,0 11,0 21 11 ONO - 10 -
15.05.2019 02:00:00 13,1 10,8 15 8 ONO 1010,8 10 -
15.05.2019 01:00:00 13,0 11,0 9 5 OSO - 10 -
15.05.2019 00:00:00 12,0 11,0 9 5 OSO - 10 -
14.05.2019 23:00:00 13,5 12,1 11 6 O 1010,8 10 0,0
14.05.2019 22:00:00 14,0 13,0 9 5 NO - 10 -
14.05.2019 21:00:00 15,0 13,0 16 9 NO - 10 -
14.05.2019 20:00:00 15,5 13,1 11 6 NO 1010,2 10 -
14.05.2019 19:00:00 16,0 12,0 15 8 NO - 10 -
14.05.2019 18:00:00 17,0 13,0 15 8 NO - 10 -
14.05.2019 17:00:00 17,1 13,7 13 7 NO 1009,1 10 0,0
14.05.2019 16:00:00 16,0 13,0 5 3 - - 10 -
14.05.2019 15:00:00 16,0 13,0 11 6 NE - 10 -
14.05.2019 14:00:00 16,0 12,6 11 6 NNE 1009,5 10 -
14.05.2019 13:00:00 17,0 13,0 15 8 NNE - 10 -
14.05.2019 12:00:00 16,0 12,0 9 5 NE - 10 -
14.05.2019 11:00:00 16,2 11,7 9 5 NNE 1009,8 10 0,0
14.05.2019 10:00:00 16,0 12,0 9 5 N - 10 -
14.05.2019 09:00:00 15,0 11,0 8 4 ONO - 10 -
14.05.2019 08:00:00 14,1 11,8 5 3 ONO 1009,7 10 -
14.05.2019 07:00:00 12,0 11,0 5 3 OSO - 10 -
14.05.2019 06:00:00 11,0 10,0 5 3 OSO - 10 -
14.05.2019 05:00:00 11,0 10,4 4 2 - 1009,0 10 0,0
14.05.2019 04:00:00 12,0 11,0 5 3 OSO - 10 -
14.05.2019 03:00:00 13,0 12,0 4 2 - - 10 -
14.05.2019 02:00:00 13,0 11,8 5 3 OSO 1008,8 10 -
14.05.2019 01:00:00 14,0 12,0 9 5 O - 10 -
14.05.2019 00:00:00 15,0 12,0 16 9 E - 10 -
13.05.2019 23:00:00 15,4 12,4 24 13 ENE 1009,6 10 0,0
13.05.2019 22:00:00 15,0 12,0 15 8 ENE - 10 -
13.05.2019 21:00:00 15,0 12,0 21 11 ENE - 10 -

tt = Temperatura
td = dewpoint
ff = velocità del vento
dd = direzione del vento
ppp = reduced air pressure
vv = visibility
rr = precipitazioni

Stazioni seguenti

WeatherPro
AMSI
MeteoEarth